Zurück zum Katalog

STARLINK-5763

AktivKommunikationVLEO
NORAD 56505·PAYLOAD·🇺🇸 United States

Gestartet May 14, 2023 von Cape Canaveral Space Force Station

Loading…

Nächste Überflüge (nächste 24 Stunden)

TLE

AktuellSource: CelesTrak SupGP

Epoche: Sep 14, 2026, 21:16 UTC

1 56505C 23065C   26257.88659722  .00028084  00000+0  10174-2 0  2579
2 56505  43.0022 224.3227 0001597 264.6608   7.6612 15.27557570    17

Verfolge STARLINK-5763 in Echtzeit mit AllMySat

Download on the App Store